ARG1572 SACO-SAZN

Flight info

Callsign ARG1572
Flight time 1h 34m
Altitude FL360
Route SIME1G SIMES UZ114 OSEKO
Aircraft B738/M-SDE2E3FGHIRWXY/LB1

Departure

Time 2026-05-09 15:31
Airport Ingeniero Aeronáutico Ambrosio L.V. Taravella International Airport (SACO)

Arrival

Time 2026-05-09 17:05
Airport Presidente Perón International Airport (SAZN)
Time Latitude Longitude Altitude Speed Heading
2026-05-09 14:51 -31.31481 -64.21177 1605 ft 0 kts 262°
2026-05-09 15:00 -31.31481 -64.21176 1607 ft 0 kts 262°
2026-05-09 15:15 -31.31480 -64.21176 1606 ft 0 kts 262°
2026-05-09 15:17 -31.31480 -64.21175 1607 ft 0 kts 262°
2026-05-09 15:17 -31.31479 -64.21167 1607 ft 2 kts 262°
2026-05-09 15:17 -31.31478 -64.21156 1607 ft 2 kts 262°
2026-05-09 15:17 -31.31474 -64.21139 1606 ft 2 kts 244°
2026-05-09 15:18 -31.31467 -64.21124 1606 ft 2 kts 232°
2026-05-09 15:18 -31.31457 -64.21111 1606 ft 2 kts 219°
2026-05-09 15:18 -31.31444 -64.21102 1606 ft 2 kts 205°
2026-05-09 15:18 -31.31430 -64.21096 1606 ft 2 kts 192°
2026-05-09 15:19 -31.31417 -64.21094 1606 ft 1 kts 180°
2026-05-09 15:19 -31.31410 -64.21094 1606 ft 1 kts 177°
2026-05-09 15:21 -31.31412 -64.21094 1605 ft 2 kts 178°
2026-05-09 15:22 -31.31439 -64.21088 1605 ft 5 kts 153°
2026-05-09 15:22 -31.31461 -64.21051 1604 ft 7 kts 105°
2026-05-09 15:22 -31.31465 -64.20993 1602 ft 8 kts 90°
2026-05-09 15:22 -31.31465 -64.20922 1600 ft 10 kts 91°
2026-05-09 15:23 -31.31461 -64.20834 1596 ft 11 kts 62°
2026-05-09 15:23 -31.31403 -64.20824 1597 ft 7 kts 360°
2026-05-09 15:23 -31.31361 -64.20825 1598 ft 5 kts 358°
2026-05-09 15:23 -31.31327 -64.20826 1599 ft 5 kts 358°
2026-05-09 15:24 -31.31286 -64.20827 1600 ft 7 kts 358°
2026-05-09 15:24 -31.31235 -64.20830 1601 ft 8 kts 359°
2026-05-09 15:24 -31.31176 -64.20830 1602 ft 9 kts 359°
2026-05-09 15:24 -31.31110 -64.20832 1604 ft 10 kts 359°
2026-05-09 15:25 -31.31039 -64.20833 1607 ft 11 kts 359°
2026-05-09 15:25 -31.30960 -64.20834 1609 ft 12 kts 359°
2026-05-09 15:25 -31.30867 -64.20836 1611 ft 15 kts 359°
2026-05-09 15:26 -31.30647 -64.20840 1619 ft 17 kts
2026-05-09 15:26 -31.30521 -64.20840 1622 ft 19 kts 359°
2026-05-09 15:26 -31.30383 -64.20842 1627 ft 20 kts 359°
2026-05-09 15:26 -31.30237 -64.20845 1631 ft 22 kts 359°
2026-05-09 15:27 -31.30078 -64.20849 1635 ft 23 kts 358°
2026-05-09 15:27 -31.29918 -64.20853 1640 ft 22 kts 359°
2026-05-09 15:27 -31.29775 -64.20856 1643 ft 18 kts 359°
2026-05-09 15:27 -31.29668 -64.20864 1646 ft 14 kts 345°
2026-05-09 15:28 -31.29596 -64.20883 1649 ft 2 kts
2026-05-09 15:28 -31.29588 -64.20881 1649 ft 1 kts 14°
2026-05-09 15:28 -31.29576 -64.20872 1649 ft 3 kts 58°
2026-05-09 15:28 -31.29582 -64.20858 1649 ft 4 kts 158°
2026-05-09 15:29 -31.29592 -64.20857 1648 ft 0 kts 178°
2026-05-09 15:30 -31.29689 -64.20857 1645 ft 48 kts 179°
2026-05-09 15:30 -31.30294 -64.20839 1629 ft 123 kts 179°
2026-05-09 15:30 -31.31367 -64.20814 1629 ft 181 kts 177°
2026-05-09 15:31 -31.32654 -64.20808 2358 ft 189 kts 179°
2026-05-09 15:31 -31.33919 -64.20708 3375 ft 185 kts 170°
2026-05-09 15:31 -31.35171 -64.20207 3783 ft 207 kts 155°
2026-05-09 15:31 -31.36417 -64.19154 4135 ft 233 kts 138°
2026-05-09 15:32 -31.37532 -64.17716 4673 ft 251 kts 135°
2026-05-09 15:32 -31.38726 -64.16158 5347 ft 261 kts 135°
2026-05-09 15:32 -31.39890 -64.14618 6454 ft 252 kts 135°
2026-05-09 15:32 -31.41026 -64.13103 7337 ft 251 kts 136°
2026-05-09 15:33 -31.42222 -64.11591 8061 ft 256 kts 139°
2026-05-09 15:33 -31.43499 -64.10141 8820 ft 259 kts 143°
2026-05-09 15:33 -31.44826 -64.08734 9620 ft 260 kts 142°
2026-05-09 15:33 -31.46145 -64.07294 10429 ft 262 kts 142°
2026-05-09 15:34 -31.47419 -64.05782 11135 ft 267 kts 133°
2026-05-09 15:34 -31.48497 -64.03921 11497 ft 286 kts 126°
2026-05-09 15:34 -31.49546 -64.01882 11875 ft 301 kts 127°
2026-05-09 15:34 -31.50706 -63.99762 12230 ft 315 kts 128°
2026-05-09 15:35 -31.51969 -63.97605 12568 ft 329 kts 129°
2026-05-09 15:35 -31.53408 -63.95481 12945 ft 337 kts 139°
2026-05-09 15:35 -31.55191 -63.93743 13636 ft 334 kts 149°
2026-05-09 15:35 -31.57151 -63.92266 14276 ft 336 kts 153°
2026-05-09 15:36 -31.59167 -63.90866 14901 ft 339 kts 153°
2026-05-09 15:36 -31.61196 -63.89454 15554 ft 342 kts 153°
2026-05-09 15:36 -31.63246 -63.87990 16174 ft 345 kts 152°
2026-05-09 15:36 -31.65288 -63.86491 16765 ft 348 kts 152°
2026-05-09 15:37 -31.67330 -63.84971 17376 ft 351 kts 151°
2026-05-09 15:37 -31.69391 -63.83427 17986 ft 353 kts 151°
2026-05-09 15:37 -31.71467 -63.81869 18480 ft 357 kts 151°
2026-05-09 15:37 -31.73564 -63.80295 19052 ft 360 kts 150°
2026-05-09 15:38 -31.75674 -63.78709 19591 ft 362 kts 150°
2026-05-09 15:38 -31.77820 -63.77096 20074 ft 366 kts 150°
2026-05-09 15:38 -31.79962 -63.75488 20654 ft 367 kts 150°
2026-05-09 15:38 -31.82112 -63.73873 21164 ft 370 kts 149°
2026-05-09 15:39 -31.84279 -63.72244 21681 ft 371 kts 149°
2026-05-09 15:39 -31.86458 -63.70604 22132 ft 375 kts 149°
2026-05-09 15:39 -31.88656 -63.68949 22602 ft 377 kts 149°
2026-05-09 15:39 -31.90866 -63.67284 23083 ft 379 kts 149°
2026-05-09 15:40 -31.93103 -63.65597 23551 ft 381 kts 149°
2026-05-09 15:40 -31.95332 -63.63932 24029 ft 382 kts 150°
2026-05-09 15:40 -31.97651 -63.62374 24368 ft 386 kts 155°
2026-05-09 15:40 -32.00149 -63.61221 24784 ft 388 kts 165°
2026-05-09 15:41 -32.02799 -63.60593 25192 ft 390 kts 173°
2026-05-09 15:41 -32.05504 -63.60401 25628 ft 392 kts 179°
2026-05-09 15:41 -32.08225 -63.60510 26051 ft 393 kts 185°
2026-05-09 15:41 -32.10946 -63.61075 26460 ft 396 kts 194°
2026-05-09 15:42 -32.13553 -63.62170 26817 ft 400 kts 202°
2026-05-09 15:42 -32.16058 -63.63612 27243 ft 402 kts 206°
2026-05-09 15:42 -32.18520 -63.65203 27590 ft 406 kts 208°
2026-05-09 15:42 -32.20970 -63.66858 27949 ft 408 kts 208°
2026-05-09 15:43 -32.23423 -63.68535 28332 ft 410 kts 209°
2026-05-09 15:43 -32.25896 -63.70226 28642 ft 413 kts 208°
2026-05-09 15:43 -32.28398 -63.71931 29050 ft 414 kts 208°
2026-05-09 15:43 -32.30899 -63.73628 29348 ft 417 kts 208°
2026-05-09 15:44 -32.33410 -63.75330 29736 ft 418 kts 208°
2026-05-09 15:44 -32.35932 -63.77037 30035 ft 421 kts 208°
2026-05-09 15:44 -32.38473 -63.78753 30355 ft 423 kts 208°
2026-05-09 15:44 -32.41028 -63.80478 30701 ft 423 kts 208°
2026-05-09 15:45 -32.43581 -63.82202 30984 ft 425 kts 208°
2026-05-09 15:45 -32.46162 -63.83945 31274 ft 426 kts 208°
2026-05-09 15:45 -32.48729 -63.85679 31575 ft 427 kts 208°
2026-05-09 15:45 -32.51312 -63.87426 31885 ft 427 kts 208°
2026-05-09 15:46 -32.53866 -63.89155 32337 ft 423 kts 207°
2026-05-09 15:46 -32.56408 -63.90875 32750 ft 421 kts 207°
2026-05-09 15:46 -32.58930 -63.92583 33151 ft 418 kts 207°
2026-05-09 15:46 -32.61437 -63.94282 33530 ft 415 kts 207°
2026-05-09 15:47 -32.63960 -63.95993 33848 ft 414 kts 206°
2026-05-09 15:47 -32.66448 -63.97678 34128 ft 413 kts 206°
2026-05-09 15:47 -32.68935 -63.99355 34409 ft 412 kts 206°
2026-05-09 15:47 -32.71418 -64.01021 34675 ft 411 kts 206°
2026-05-09 15:48 -32.73902 -64.02687 34931 ft 410 kts 206°
2026-05-09 15:48 -32.76380 -64.04347 35171 ft 409 kts 206°
2026-05-09 15:48 -32.78842 -64.05999 35402 ft 408 kts 206°
2026-05-09 15:48 -32.81317 -64.07660 35648 ft 406 kts 206°
2026-05-09 15:49 -32.83768 -64.09304 35917 ft 405 kts 206°
2026-05-09 15:49 -32.86211 -64.10942 36188 ft 405 kts 206°
2026-05-09 15:49 -32.88659 -64.12586 36338 ft 406 kts 206°
2026-05-09 15:49 -32.91113 -64.14241 36348 ft 407 kts 207°
2026-05-09 15:50 -32.95991 -64.17538 36351 ft 404 kts 206°
2026-05-09 15:50 -33.00876 -64.20838 36354 ft 404 kts 206°
2026-05-09 15:51 -33.05738 -64.24125 36368 ft 401 kts 206°
2026-05-09 15:51 -33.10571 -64.27406 36371 ft 401 kts 206°
2026-05-09 15:52 -33.17750 -64.32499 36380 ft 399 kts 206°
2026-05-09 15:53 -33.22493 -64.35898 36368 ft 399 kts 206°
2026-05-09 15:53 -33.27241 -64.39296 36372 ft 399 kts 206°
2026-05-09 15:54 -33.31989 -64.42683 36385 ft 396 kts 206°
2026-05-09 15:54 -33.36710 -64.46059 36378 ft 396 kts 206°
2026-05-09 15:55 -33.41414 -64.49436 36374 ft 395 kts 206°
2026-05-09 15:55 -33.46119 -64.52810 36372 ft 394 kts 206°
2026-05-09 15:56 -33.50836 -64.56173 36362 ft 395 kts 205°
2026-05-09 15:56 -33.55564 -64.59457 36372 ft 393 kts 205°
2026-05-09 15:57 -33.60292 -64.62719 36375 ft 391 kts 204°
2026-05-09 15:57 -33.65007 -64.65991 36378 ft 391 kts 204°
2026-05-09 15:58 -33.69718 -64.69255 36365 ft 392 kts 204°
2026-05-09 15:58 -33.74406 -64.72528 36372 ft 391 kts 205°
2026-05-09 15:59 -33.79082 -64.75795 36376 ft 390 kts 204°
2026-05-09 15:59 -33.83788 -64.79080 36375 ft 389 kts 204°
2026-05-09 16:00 -33.88441 -64.82335 36591 ft 388 kts 204°
2026-05-09 16:00 -33.93114 -64.85609 36384 ft 389 kts 203°
2026-05-09 16:01 -33.97756 -64.88869 36376 ft 384 kts 204°
2026-05-09 16:01 -34.02355 -64.92108 36373 ft 384 kts 204°
2026-05-09 16:02 -34.06971 -64.95353 36375 ft 386 kts 203°
2026-05-09 16:02 -34.13895 -65.00232 36392 ft 380 kts 202°
2026-05-09 16:03 -34.18439 -65.03435 36400 ft 380 kts 202°
2026-05-09 16:03 -34.22988 -65.06650 36401 ft 379 kts 202°
2026-05-09 16:04 -34.27530 -65.09856 36398 ft 376 kts 201°
2026-05-09 16:04 -34.32050 -65.13059 36388 ft 374 kts 202°
2026-05-09 16:05 -34.36543 -65.16245 36394 ft 376 kts 202°
2026-05-09 16:05 -34.41049 -65.19443 36387 ft 375 kts 202°
2026-05-09 16:06 -34.45558 -65.22653 36384 ft 375 kts 201°
2026-05-09 16:06 -34.50024 -65.25843 36322 ft 373 kts 201°
2026-05-09 16:07 -34.54512 -65.29032 36382 ft 374 kts 201°
2026-05-09 16:07 -34.58989 -65.32229 36380 ft 374 kts 200°
2026-05-09 16:08 -34.63476 -65.35432 36389 ft 371 kts 201°
2026-05-09 16:08 -34.67927 -65.38608 36380 ft 374 kts 200°
2026-05-09 16:09 -34.72414 -65.41808 36380 ft 372 kts 201°
2026-05-09 16:09 -34.76856 -65.44989 36383 ft 370 kts 201°
2026-05-09 16:10 -34.81281 -65.48160 36390 ft 373 kts 200°
2026-05-09 16:10 -34.85725 -65.51359 36395 ft 371 kts 200°
2026-05-09 16:11 -34.90136 -65.54537 36374 ft 369 kts 200°
2026-05-09 16:11 -34.94557 -65.57728 36403 ft 367 kts 200°
2026-05-09 16:12 -34.98923 -65.60888 36388 ft 367 kts 200°
2026-05-09 16:12 -35.03321 -65.64059 36508 ft 371 kts 200°
2026-05-09 16:13 -35.05512 -65.65648 36401 ft 364 kts 200°
2026-05-09 16:13 -35.07692 -65.67229 36392 ft 364 kts 200°
2026-05-09 16:13 -35.12082 -65.70398 36388 ft 370 kts 200°
2026-05-09 16:14 -35.16452 -65.73572 36380 ft 362 kts 200°
2026-05-09 16:14 -35.20801 -65.76726 36380 ft 367 kts 200°
2026-05-09 16:15 -35.25178 -65.79908 36384 ft 365 kts 201°
2026-05-09 16:15 -35.29505 -65.83065 36386 ft 363 kts 200°
2026-05-09 16:16 -35.33860 -65.86231 36385 ft 365 kts 200°
2026-05-09 16:16 -35.38217 -65.89413 36388 ft 363 kts 200°
2026-05-09 16:17 -35.42542 -65.92572 36399 ft 363 kts 200°
2026-05-09 16:17 -35.46878 -65.95756 36386 ft 364 kts 201°
2026-05-09 16:18 -35.51198 -65.98908 36382 ft 362 kts 200°
2026-05-09 16:18 -35.55529 -66.02079 36386 ft 363 kts 200°
2026-05-09 16:19 -35.59841 -66.05247 36382 ft 362 kts 200°
2026-05-09 16:19 -35.64184 -66.08416 36381 ft 363 kts 200°
2026-05-09 16:20 -35.68526 -66.11624 36382 ft 364 kts 200°
2026-05-09 16:20 -35.72829 -66.14808 36381 ft 361 kts 201°
2026-05-09 16:21 -35.77130 -66.17991 36382 ft 363 kts 200°
2026-05-09 16:21 -35.81483 -66.21208 36373 ft 365 kts 201°
2026-05-09 16:22 -35.85825 -66.24430 36368 ft 364 kts 201°
2026-05-09 16:22 -35.90145 -66.27644 36368 ft 362 kts 200°
2026-05-09 16:23 -35.94465 -66.30836 36369 ft 362 kts 200°
2026-05-09 16:23 -35.98817 -66.34060 36370 ft 364 kts 200°
2026-05-09 16:24 -36.03123 -66.37278 36373 ft 363 kts 200°
2026-05-09 16:24 -36.07414 -66.40481 36370 ft 361 kts 200°
2026-05-09 16:25 -36.11024 -66.43165 36376 ft 365 kts 200°
2026-05-09 16:25 -36.16067 -66.46933 36377 ft 360 kts 201°
2026-05-09 16:26 -36.20346 -66.50145 36379 ft 359 kts 201°
2026-05-09 16:26 -36.24634 -66.53354 36381 ft 361 kts 201°
2026-05-09 16:27 -36.28922 -66.56577 36381 ft 358 kts 201°
2026-05-09 16:27 -36.33206 -66.59787 36383 ft 363 kts 201°
2026-05-09 16:28 -36.37499 -66.63004 36375 ft 359 kts 201°
2026-05-09 16:28 -36.41770 -66.66219 36381 ft 361 kts 201°
2026-05-09 16:29 -36.46070 -66.69464 36380 ft 360 kts 202°
2026-05-09 16:29 -36.50349 -66.72705 36382 ft 361 kts 201°
2026-05-09 16:30 -36.54612 -66.75927 36383 ft 358 kts 202°
2026-05-09 16:30 -36.58896 -66.79173 36382 ft 361 kts 202°
2026-05-09 16:31 -36.63141 -66.82405 36385 ft 357 kts 202°
2026-05-09 16:31 -36.67391 -66.85619 36382 ft 360 kts 202°
2026-05-09 16:32 -36.70975 -66.88321 36384 ft 361 kts 202°
2026-05-09 16:32 -36.75949 -66.92109 36387 ft 360 kts 203°
2026-05-09 16:33 -36.80187 -66.95353 36390 ft 357 kts 202°
2026-05-09 16:33 -36.84411 -66.98567 36392 ft 358 kts 202°
2026-05-09 16:34 -36.88678 -67.01807 36385 ft 356 kts 202°
2026-05-09 16:34 -36.93022 -67.04573 36390 ft 350 kts 197°
2026-05-09 16:35 -36.97499 -67.06920 36388 ft 349 kts 195°
2026-05-09 16:35 -37.01995 -67.09263 36389 ft 350 kts 195°
2026-05-09 16:36 -37.10950 -67.14037 36378 ft 350 kts 196°
2026-05-09 16:37 -37.15436 -67.16439 36367 ft 351 kts 197°
2026-05-09 16:37 -37.19917 -67.18846 36368 ft 351 kts 196°
2026-05-09 16:38 -37.24407 -67.21257 36368 ft 351 kts 197°
2026-05-09 16:38 -37.28872 -67.23668 36366 ft 351 kts 197°
2026-05-09 16:39 -37.33366 -67.26090 36364 ft 352 kts 197°
2026-05-09 16:39 -37.37845 -67.28522 36367 ft 348 kts 197°
2026-05-09 16:40 -37.40075 -67.29726 36208 ft 352 kts 197°
2026-05-09 16:40 -37.42327 -67.30940 35897 ft 353 kts 197°
2026-05-09 16:42 -37.57773 -67.39315 32075 ft 337 kts 197°
2026-05-09 16:42 -37.59911 -67.40477 31552 ft 336 kts 197°
2026-05-09 16:42 -37.62044 -67.41637 31031 ft 334 kts 196°
2026-05-09 16:42 -37.64167 -67.42794 30513 ft 332 kts 197°
2026-05-09 16:43 -37.66290 -67.43953 29993 ft 330 kts 197°
2026-05-09 16:43 -37.68383 -67.45096 29483 ft 328 kts 196°
2026-05-09 16:43 -37.70466 -67.46232 28976 ft 326 kts 197°
2026-05-09 16:43 -37.72539 -67.47361 28466 ft 324 kts 196°
2026-05-09 16:44 -37.74594 -67.48483 27960 ft 322 kts 196°
2026-05-09 16:44 -37.76635 -67.49598 27460 ft 320 kts 197°
2026-05-09 16:44 -37.78666 -67.50708 26903 ft 320 kts 197°
2026-05-09 16:44 -37.80743 -67.51838 26052 ft 328 kts 197°
2026-05-09 16:45 -37.82825 -67.52974 25486 ft 326 kts 198°
2026-05-09 16:45 -37.84887 -67.54105 25001 ft 323 kts 198°
2026-05-09 16:45 -37.86936 -67.55230 24503 ft 321 kts 198°
2026-05-09 16:45 -37.88967 -67.56346 24019 ft 319 kts 198°
2026-05-09 16:46 -37.90990 -67.57456 23527 ft 317 kts 199°
2026-05-09 16:46 -37.93006 -67.58564 23027 ft 315 kts 198°
2026-05-09 16:46 -37.95019 -67.59670 22544 ft 314 kts 198°
2026-05-09 16:46 -37.97006 -67.60762 22065 ft 312 kts 198°
2026-05-09 16:47 -37.98984 -67.61851 21583 ft 310 kts 198°
2026-05-09 16:47 -38.00956 -67.62936 21098 ft 309 kts 198°
2026-05-09 16:47 -38.02913 -67.64016 20620 ft 307 kts 198°
2026-05-09 16:47 -38.04864 -67.65092 20146 ft 305 kts 199°
2026-05-09 16:48 -38.06799 -67.66160 19673 ft 304 kts 199°
2026-05-09 16:48 -38.08740 -67.67229 19193 ft 302 kts 198°
2026-05-09 16:48 -38.10657 -67.68283 18734 ft 300 kts 198°
2026-05-09 16:48 -38.12559 -67.69332 18271 ft 299 kts 198°
2026-05-09 16:49 -38.14461 -67.70383 17813 ft 299 kts 199°
2026-05-09 16:49 -38.16356 -67.71433 17351 ft 298 kts 199°
2026-05-09 16:49 -38.18251 -67.72485 16881 ft 298 kts 199°
2026-05-09 16:50 -38.22051 -67.74588 15968 ft 297 kts 198°
2026-05-09 16:50 -38.23945 -67.75637 15506 ft 297 kts 199°
2026-05-09 16:50 -38.25830 -67.76683 15051 ft 296 kts 198°
2026-05-09 16:50 -38.27715 -67.77729 14597 ft 296 kts 198°
2026-05-09 16:51 -38.29596 -67.78773 14144 ft 295 kts 198°
2026-05-09 16:51 -38.31472 -67.79813 13693 ft 295 kts 198°
2026-05-09 16:51 -38.33347 -67.80853 13243 ft 294 kts 198°
2026-05-09 16:51 -38.35231 -67.81900 12787 ft 294 kts 199°
2026-05-09 16:52 -38.37098 -67.82940 12342 ft 293 kts 199°
2026-05-09 16:52 -38.38957 -67.83975 11899 ft 292 kts 199°
2026-05-09 16:52 -38.40811 -67.85008 11455 ft 291 kts 199°
2026-05-09 16:52 -38.42657 -67.86037 11019 ft 290 kts 200°
2026-05-09 16:53 -38.44491 -67.87060 10647 ft 286 kts 200°
2026-05-09 16:53 -38.46278 -67.88061 10483 ft 275 kts 200°
2026-05-09 16:53 -38.48004 -67.89028 10286 ft 266 kts 199°
2026-05-09 16:53 -38.49741 -67.89793 9903 ft 263 kts 189°
2026-05-09 16:54 -38.51528 -67.90054 9562 ft 258 kts 181°
2026-05-09 16:54 -38.53311 -67.90107 9214 ft 256 kts 180°
2026-05-09 16:54 -38.55082 -67.90158 8873 ft 254 kts 180°
2026-05-09 16:54 -38.56837 -67.90251 8528 ft 252 kts 181°
2026-05-09 16:55 -38.58581 -67.90368 8191 ft 250 kts 182°
2026-05-09 16:55 -38.60317 -67.90490 7852 ft 248 kts 182°
2026-05-09 16:55 -38.62030 -67.90612 7515 ft 246 kts 183°
2026-05-09 16:55 -38.63732 -67.90730 7178 ft 245 kts 183°
2026-05-09 16:56 -38.65422 -67.90847 6843 ft 243 kts 183°
2026-05-09 16:56 -38.67102 -67.90965 6508 ft 242 kts 183°
2026-05-09 16:56 -38.68777 -67.91080 6183 ft 240 kts 184°
2026-05-09 16:56 -38.70442 -67.91195 5996 ft 239 kts 184°
2026-05-09 16:57 -38.72139 -67.91314 5925 ft 245 kts 184°
2026-05-09 16:57 -38.73818 -67.91435 5665 ft 240 kts 184°
2026-05-09 16:57 -38.75469 -67.91550 5409 ft 236 kts 184°
2026-05-09 16:57 -38.77093 -67.91663 5153 ft 233 kts 184°
2026-05-09 16:58 -38.78685 -67.91774 5004 ft 224 kts 185°
2026-05-09 16:58 -38.80196 -67.91879 5018 ft 214 kts 184°
2026-05-09 16:58 -38.81683 -67.91982 5003 ft 213 kts 185°
2026-05-09 16:58 -38.83166 -67.92086 5011 ft 213 kts 185°
2026-05-09 16:59 -38.84643 -67.92188 5008 ft 214 kts 184°
2026-05-09 16:59 -38.86136 -67.92231 4874 ft 212 kts 181°
2026-05-09 16:59 -38.87582 -67.92221 4695 ft 204 kts 181°
2026-05-09 16:59 -38.88982 -67.92212 4490 ft 199 kts 182°
2026-05-09 17:00 -38.90352 -67.92215 4254 ft 195 kts 182°
2026-05-09 17:00 -38.91687 -67.92216 4000 ft 190 kts 183°
2026-05-09 17:00 -38.92994 -67.92330 3738 ft 185 kts 196°
2026-05-09 17:00 -38.94055 -67.93101 3595 ft 170 kts 230°
2026-05-09 17:01 -38.94674 -67.94306 3620 ft 158 kts 244°
2026-05-09 17:01 -38.95003 -67.95644 3585 ft 160 kts 266°
2026-05-09 17:01 -38.94968 -67.97058 3413 ft 158 kts 273°
2026-05-09 17:01 -38.94935 -67.98450 3233 ft 155 kts 270°
2026-05-09 17:02 -38.94938 -67.99829 3076 ft 151 kts 269°
2026-05-09 17:02 -38.94938 -68.01128 2901 ft 141 kts 269°
2026-05-09 17:02 -38.94934 -68.02356 2728 ft 138 kts 269°
2026-05-09 17:02 -38.94927 -68.03584 2589 ft 137 kts 270°
2026-05-09 17:03 -38.94897 -68.04806 2509 ft 136 kts 270°
2026-05-09 17:04 -38.94895 -68.13287 1140 ft 133 kts 270°
2026-05-09 17:05 -38.94900 -68.14492 957 ft 136 kts 270°
2026-05-09 17:05 -38.94905 -68.15633 941 ft 112 kts 269°
2026-05-09 17:05 -38.94903 -68.16296 940 ft 41 kts 270°
2026-05-09 17:05 -38.94908 -68.16612 940 ft 34 kts 267°
2026-05-09 17:06 -38.94915 -68.16825 940 ft 15 kts 267°
2026-05-09 17:06 -38.94922 -68.16955 940 ft 14 kts 264°
2026-05-09 17:06 -38.94900 -68.16994 940 ft 5 kts 33°
2026-05-09 17:06 -38.94894 -68.16945 940 ft 8 kts 91°
2026-05-09 17:07 -38.94896 -68.16840 940 ft 15 kts 91°
2026-05-09 17:07 -38.94897 -68.16791 940 ft 18 kts 90°
2026-05-09 17:07 -38.94844 -68.16567 940 ft 7 kts 353°
2026-05-09 17:07 -38.94834 -68.16566 940 ft 2 kts 24°
2026-05-09 17:08 -38.94829 -68.16550 940 ft 3 kts 92°
2026-05-09 17:08 -38.94861 -68.16490 941 ft 4 kts 133°
2026-05-09 17:08 -38.94886 -68.16447 941 ft 10 kts 116°
2026-05-09 17:09 -38.94900 -68.16319 942 ft 20 kts 90°
2026-05-09 17:09 -38.94899 -68.16116 941 ft 25 kts 91°
2026-05-09 17:09 -38.94900 -68.15881 941 ft 28 kts 90°
2026-05-09 17:09 -38.94901 -68.15613 941 ft 32 kts 90°
2026-05-09 17:10 -38.94902 -68.15314 940 ft 35 kts 90°
2026-05-09 17:10 -38.94902 -68.14997 940 ft 35 kts 90°
2026-05-09 17:10 -38.94901 -68.14697 940 ft 31 kts 89°
2026-05-09 17:10 -38.94901 -68.14506 940 ft 16 kts 90°
2026-05-09 17:11 -38.94901 -68.14443 940 ft 5 kts 90°
2026-05-09 17:11 -38.94901 -68.14398 940 ft 5 kts 90°
2026-05-09 17:11 -38.94901 -68.14335 940 ft 11 kts 90°
2026-05-09 17:11 -38.94901 -68.14237 940 ft 11 kts 91°
2026-05-09 17:12 -38.94921 -68.14148 940 ft 10 kts 126°
2026-05-09 17:12 -38.94981 -68.14117 940 ft 10 kts 177°
2026-05-09 17:12 -38.95048 -68.14116 940 ft 9 kts 181°
2026-05-09 17:12 -38.95093 -68.14151 940 ft 5 kts 229°
2026-05-09 17:13 -38.95123 -68.14159 940 ft 4 kts 182°
2026-05-09 17:13 -38.95151 -68.14160 940 ft 3 kts 180°
2026-05-09 17:13 -38.95155 -68.14160 940 ft 0 kts 180°